This is the latest recevied weather packets stored in our database for station/object KC3ELT-10. If no packets are shown the sender has not sent any weather packets the latest 10 day(s).
| Time | Temp. | Humidity | Pressure | Rain* | Wind** | Luminosity | Snow |
|---|---|---|---|---|---|---|---|
| 1777588079 | 13.33° C | 63% | 1002.3 hPa | 0 mm | 0 m/s | - | - |
| 1777587778 | 13.33° C | 62% | 1002.3 hPa | 0 mm | 0 m/s | - | - |
| 1777587479 | 13.89° C | 61% | 1002.3 hPa | 0 mm | 0.89 m/s, 25° | - | - |
| 1777587178 | 13.89° C | 61% | 1002.2 hPa | 0 mm | 1.34 m/s, 342° | - | - |
| 1777586878 | 13.89° C | 61% | 1002.2 hPa | 0 mm | 0.45 m/s, 0° | - | - |
| 1777586579 | 14.44° C | 61% | 1002.2 hPa | 0 mm | 0.45 m/s, 1° | - | - |
| 1777586279 | 14.44° C | 59% | 1002.1 hPa | 0 mm | 0 m/s | - | - |
| 1777585979 | 15° C | 59% | 1002.1 hPa | 0 mm | 0 m/s | - | - |
| 1777585678 | 15° C | 58% | 1002.1 hPa | 0 mm | 0 m/s | - | - |
| 1777585378 | 14.44° C | 59% | 1002.2 hPa | 0 mm | 0 m/s | - | - |
| 1777585079 | 13.89° C | 61% | 1002.2 hPa | 0 mm | 0.45 m/s, 12° | - | - |
| 1777584778 | 13.33° C | 61% | 1002.2 hPa | 0 mm | 0.45 m/s, 343° | - | - |
| 1777584479 | 13.33° C | 60% | 1002.2 hPa | 0 mm | 0.89 m/s, 1° | - | - |
| 1777584179 | 13.33° C | 60% | 1002.2 hPa | 0 mm | 1.34 m/s, 297° | - | - |
| 1777583878 | 13.33° C | 61% | 1002.2 hPa | 0 mm | 0.89 m/s, 335° | - | - |
| 1777583579 | 13.33° C | 60% | 1002 hPa | 0 mm | 0.89 m/s, 0° | - | - |
| 1777583279 | 13.89° C | 60% | 1002 hPa | 0 mm | 1.34 m/s, 314° | - | - |
| 1777582979 | 13.33° C | 61% | 1002 hPa | 0 mm | 1.79 m/s, 345° | - | - |
| 1777582679 | 13.33° C | 62% | 1001.8 hPa | 0 mm | 1.34 m/s, 357° | - | - |
| 1777582378 | 13.33° C | 60% | 1001.8 hPa | 0 mm | 1.34 m/s, 343° | - | - |
| 1777582078 | 13.89° C | 61% | 1001.8 hPa | 0 mm | 4.02 m/s, 295° | - | - |
| 1777581779 | 13.89° C | 61% | 1001.8 hPa | 0 mm | 1.34 m/s, 335° | - | - |
| 1777581479 | 13.33° C | 62% | 1001.8 hPa | 0 mm | 2.24 m/s, 332° | - | - |
| 1777581179 | 13.33° C | 63% | 1001.8 hPa | 0 mm | 1.79 m/s, 336° | - | - |
| 1777580879 | 13.33° C | 62% | 1001.8 hPa | 0 mm | 1.79 m/s, 342° | - | - |
* Rain latest hour (hover to see other rain measurements)
** Current wind speed in m/s (hover to see current wind gust speed)